Tiempo cada hora Barnab

Hoy, 13 Mayo, Jueves

Tiempo Temperatura Precipitaciones Viento Presión Humedad
00:00 +7°C° 0 mm 2 mps 612 mmHg 62%
01:00 +7°C° 0 mm 2 mps 612 mmHg 61%
02:00 +7°C° 0 mm 2 mps 612 mmHg 61%
03:00 +7°C° 0 mm 3 mps 612 mmHg 59%
04:00 +8°C° 0 mm 3 mps 613 mmHg 60%
05:00 +9°C° 0 mm 3 mps 613 mmHg 60%
06:00 +10°C° 0 mm 2 mps 614 mmHg 61%
07:00 +12°C° 0 mm 3 mps 614 mmHg 59%
08:00 +13°C° 0 mm 3 mps 615 mmHg 56%
09:00 +16°C° 0 mm 3 mps 615 mmHg 54%
10:00 +17°C° 0 mm 3 mps 616 mmHg 52%
11:00 +18°C° 0 mm 3 mps 616 mmHg 50%
12:00 +18°C° 0 mm 3 mps 616 mmHg 48%
13:00 +18°C° 0 mm 3 mps 616 mmHg 47%
14:00 +19°C° 0 mm 3 mps 616 mmHg 46%
15:00 +19°C° 0 mm 2 mps 616 mmHg 44%
16:00 +18°C° 0.1 mm 2 mps 616 mmHg 50%
17:00 +17°C° 0.1 mm 2 mps 616 mmHg 57%
18:00 +16°C° 0.1 mm 2 mps 615 mmHg 63%
19:00 +14°C° 0 mm 2 mps 615 mmHg 66%
20:00 +13°C° 0 mm 2 mps 615 mmHg 70%
21:00 +10°C° 0 mm 2 mps 615 mmHg 74%
22:00 +10°C° 0 mm 2 mps 615 mmHg 71%
23:00 +9°C° 0 mm 2 mps 615 mmHg 67%

Mañana, 14 Mayo, Viernes

Tiempo Temperatura Precipitaciones Viento Presión Humedad
00:00 +9°C° 0 mm 2 mps 615 mmHg 64%
01:00 +9°C° 0 mm 2 mps 615 mmHg 63%
02:00 +9°C° 0 mm 2 mps 614 mmHg 62%
03:00 +9°C° 0 mm 2 mps 614 mmHg 61%
04:00 +10°C° 0 mm 2 mps 615 mmHg 62%
05:00 +12°C° 0 mm 2 mps 615 mmHg 62%
06:00 +12°C° 0 mm 2 mps 615 mmHg 63%
07:00 +14°C° 0 mm 2 mps 616 mmHg 60%
08:00 +16°C° 0 mm 2 mps 616 mmHg 56%
09:00 +17°C° 0 mm 2 mps 617 mmHg 53%
10:00 +18°C° 0 mm 3 mps 617 mmHg 52%
11:00 +18°C° 0 mm 3 mps 617 mmHg 51%
12:00 +19°C° 0 mm 3 mps 617 mmHg 50%
13:00 +19°C° 0 mm 3 mps 617 mmHg 50%
14:00 +19°C° 0 mm 3 mps 617 mmHg 50%
15:00 +19°C° 0 mm 3 mps 617 mmHg 50%
16:00 +18°C° 0.1 mm 3 mps 616 mmHg 57%
17:00 +17°C° 0.1 mm 2 mps 616 mmHg 63%
18:00 +15°C° 0.1 mm 2 mps 616 mmHg 69%
19:00 +14°C° 0.2 mm 2 mps 616 mmHg 73%
20:00 +13°C° 0.2 mm 2 mps 615 mmHg 77%
21:00 +12°C° 0.2 mm 2 mps 615 mmHg 81%
22:00 +10°C° 0 mm 2 mps 615 mmHg 82%
23:00 +10°C° 0 mm 2 mps 615 mmHg 83%

Pasado mañana, 15 Mayo, Sábado

Tiempo Temperatura Precipitaciones Viento Presión Humedad
00:00 +9°C° 0 mm 2 mps 615 mmHg 84%
01:00 +9°C° 0 mm 2 mps 614 mmHg 84%
02:00 +8°C° 0 mm 2 mps 614 mmHg 84%
03:00 +8°C° 0 mm 2 mps 614 mmHg 85%
04:00 +9°C° 0 mm 2 mps 614 mmHg 82%
05:00 +10°C° 0 mm 2 mps 614 mmHg 79%
06:00 +12°C° 0 mm 1 mps 615 mmHg 77%
07:00 +13°C° 0 mm 2 mps 615 mmHg 70%
08:00 +15°C° 0 mm 2 mps 615 mmHg 63%
09:00 +16°C° 0 mm 2 mps 616 mmHg 56%
10:00 +17°C° 0.1 mm 2 mps 616 mmHg 55%
11:00 +18°C° 0.1 mm 2 mps 616 mmHg 53%
12:00 +19°C° 0.1 mm 2 mps 616 mmHg 52%
13:00 +18°C° 0.8 mm 2 mps 616 mmHg 57%
14:00 +17°C° 0.8 mm 2 mps 616 mmHg 62%
15:00 +16°C° 0.8 mm 2 mps 615 mmHg 68%
16:00 +15°C° 1.4 mm 2 mps 615 mmHg 72%
17:00 +14°C° 1.4 mm 2 mps 615 mmHg 77%
18:00 +13°C° 1.4 mm 2 mps 615 mmHg 82%
19:00 +13°C° 0.2 mm 2 mps 615 mmHg 81%
20:00 +12°C° 0.2 mm 2 mps 615 mmHg 80%
21:00 +12°C° 0.2 mm 2 mps 614 mmHg 79%
22:00 +10°C° 0 mm 2 mps 614 mmHg 79%
23:00 +9°C° 0 mm 2 mps 614 mmHg 79%

16 Mayo, Domingo

Tiempo Temperatura Precipitaciones Viento Presión Humedad
00:00 +9°C° 0 mm 2 mps 613 mmHg 79%
01:00 +8°C° 0 mm 2 mps 613 mmHg 76%
02:00 +8°C° 0 mm 2 mps 613 mmHg 72%
03:00 +7°C° 0 mm 2 mps 612 mmHg 68%
04:00 +8°C° 0 mm 2 mps 613 mmHg 66%
05:00 +9°C° 0 mm 2 mps 613 mmHg 63%
06:00 +10°C° 0 mm 2 mps 613 mmHg 60%
07:00 +12°C° 0 mm 2 mps 614 mmHg 53%
08:00 +13°C° 0 mm 3 mps 614 mmHg 46%
09:00 +16°C° 0 mm 3 mps 614 mmHg 39%
10:00 +16°C° 0 mm 3 mps 614 mmHg 37%
11:00 +17°C° 0 mm 3 mps 614 mmHg 36%
12:00 +18°C° 0 mm 3 mps 615 mmHg 34%
13:00 +18°C° 0 mm 3 mps 614 mmHg 34%
14:00 +18°C° 0 mm 3 mps 614 mmHg 34%
15:00 +18°C° 0 mm 3 mps 614 mmHg 33%
16:00 +17°C° 0 mm 3 mps 614 mmHg 38%
17:00 +16°C° 0 mm 3 mps 613 mmHg 43%
18:00 +15°C° 0 mm 2 mps 613 mmHg 48%
19:00 +13°C° 0 mm 2 mps 613 mmHg 51%
20:00 +11°C° 0 mm 3 mps 613 mmHg 54%
21:00 +9°C° 0 mm 3 mps 612 mmHg 57%
22:00 +9°C° 0 mm 3 mps 612 mmHg 56%
23:00 +9°C° 0 mm 3 mps 612 mmHg 55%

17 Mayo, Lunes

Tiempo Temperatura Precipitaciones Viento Presión Humedad
00:00 +9°C° 0 mm 2 mps 612 mmHg 55%
01:00 +8°C° 0 mm 2 mps 611 mmHg 56%
02:00 +8°C° 0 mm 2 mps 611 mmHg 57%
03:00 +8°C° 0 mm 2 mps 611 mmHg 58%
04:00 +9°C° 0 mm 2 mps 611 mmHg 57%
05:00 +10°C° 0 mm 2 mps 611 mmHg 56%
06:00 +12°C° 0 mm 2 mps 612 mmHg 55%
07:00 +14°C° 0 mm 2 mps 612 mmHg 52%
08:00 +16°C° 0 mm 2 mps 612 mmHg 49%
09:00 +18°C° 0 mm 3 mps 613 mmHg 45%
10:00 +19°C° 0 mm 3 mps 613 mmHg 43%
11:00 +19°C° 0 mm 3 mps 613 mmHg 40%
12:00 +20°C° 0 mm 3 mps 614 mmHg 38%
13:00 +20°C° 0 mm 3 mps 614 mmHg 36%
14:00 +21°C° 0 mm 3 mps 614 mmHg 35%
15:00 +21°C° 0 mm 3 mps 614 mmHg 34%
16:00 +20°C° 0 mm 2 mps 613 mmHg 38%
17:00 +19°C° 0 mm 2 mps 613 mmHg 42%
18:00 +19°C° 0 mm 1 mps 612 mmHg 47%
19:00 +16°C° 0 mm 1 mps 612 mmHg 50%
20:00 +15°C° 0 mm 2 mps 612 mmHg 53%
21:00 +13°C° 0 mm 2 mps 612 mmHg 56%
22:00 +13°C° 0 mm 2 mps 612 mmHg 59%
23:00 +13°C° 0 mm 2 mps 612 mmHg 62%

18 Mayo, Martes

Tiempo Temperatura Precipitaciones Viento Presión Humedad
00:00 +12°C° 0 mm 2 mps 612 mmHg 65%
01:00 +12°C° 0 mm 2 mps 612 mmHg 60%
02:00 +13°C° 0 mm 2 mps 611 mmHg 56%
03:00 +13°C° 0 mm 2 mps 611 mmHg 51%
04:00 +13°C° 0 mm 2 mps 611 mmHg 51%
05:00 +14°C° 0 mm 2 mps 611 mmHg 52%
06:00 +15°C° 0 mm 2 mps 612 mmHg 53%
07:00 +16°C° 0 mm 2 mps 612 mmHg 50%
08:00 +17°C° 0 mm 2 mps 613 mmHg 47%
09:00 +19°C° 0 mm 2 mps 613 mmHg 44%
10:00 +18°C° 0.2 mm 2 mps 613 mmHg 48%
11:00 +18°C° 0.2 mm 2 mps 613 mmHg 53%
12:00 +18°C° 0.2 mm 2 mps 613 mmHg 57%
13:00 +17°C° 0.7 mm 2 mps 613 mmHg 59%
14:00 +17°C° 0.7 mm 2 mps 613 mmHg 62%
15:00 +16°C° 0.7 mm 2 mps 612 mmHg 64%
16:00 +16°C° 0.6 mm 2 mps 612 mmHg 67%
17:00 +15°C° 0.6 mm 2 mps 612 mmHg 70%
18:00 +15°C° 0.6 mm 2 mps 612 mmHg 73%
19:00 +14°C° 0.6 mm 1 mps 612 mmHg 79%
20:00 +13°C° 0.6 mm 1 mps 612 mmHg 85%
21:00 +12°C° 0.6 mm 1 mps 612 mmHg 91%
22:00 +10°C° 0.5 mm 2 mps 612 mmHg 91%
23:00 +10°C° 0.5 mm 2 mps 612 mmHg 90%
Mostrar más

Necesitamos Su Consentimiento

Meteoprog y nuestros Proveedores de Servicios pueden almacenar y acceder a sus datos personales como cookies, identificadores de dispositivo u otras tecnologías similares de su dispositivo y procesar dichos datos para personalizar contenido y anuncios, además de ofrecer funciones de redes sociales y analizar el tráfico.

  • Almacenar y/o acceder a información en su dispositivo

    Se puede almacenar o acceder a cookies, identificadores de dispositivo u otra información de su dispositivo para los fines anteriormente indicados.

  • Anuncios y contenido personalizados, medición de anuncios y contenido, percepciones del público, y desarrollo de productos

    Los anuncios y el contenido pueden personalizarse en base a su perfil. Se pueden añadir más datos para personalizar mejor los anuncios y contenidos. Se puede medir el rendimiento de los anuncios y contenidos. Se puede obtener la percepción sobre el público que ha visto los anuncios y contenidos. Dichos datos pueden usarse para desarrollar o mejorar la experiencia del usuario, sistemas y software.

Al hacer clic en ‘Estoy De Acuerdo’ usted permitirá el uso de las cookies, identificadores de dispositivo, balizas web u otras tecnologías similares indicadas. Su configuración puede cambiarse desde el navegador de su dispositivo.

Para ciertos fines, los intereses legítimos pueden ser considerados por encima del consentimiento. Puede leer más sobre ello en nuestra Política de Privacidad y Cookies.